This is the latest recevied weather packets stored in our database for station/object OM0AGP-15. If no packets are shown the sender has not sent any weather packets the latest 10 day(s).
| Time | Temp. | Humidity | Pressure | Rain* | Wind** | Luminosity | Snow |
|---|---|---|---|---|---|---|---|
| 1777941753 | 5° C | 57% | 1014.9 hPa | - | - | - | - |
| 1777940853 | 5° C | 57% | 1014.9 hPa | - | - | - | - |
| 1777939953 | 5.56° C | 56% | 1015.1 hPa | - | - | - | - |
| 1777939053 | 6.11° C | 55% | 1015.3 hPa | - | - | - | - |
| 1777938153 | 6.11° C | 54% | 1015.4 hPa | - | - | - | - |
| 1777937253 | 6.11° C | 53% | 1015.4 hPa | - | - | - | - |
| 1777936353 | 6.67° C | 52% | 1015.5 hPa | - | - | - | - |
| 1777935453 | 6.67° C | 51% | 1015.6 hPa | - | - | - | - |
| 1777934552 | 6.67° C | 51% | 1015.7 hPa | - | - | - | - |
| 1777933652 | 7.22° C | 49% | 1015.7 hPa | - | - | - | - |
| 1777932752 | 7.78° C | 49% | 1015.8 hPa | - | - | - | - |
| 1777931852 | 7.78° C | 48% | 1015.8 hPa | - | - | - | - |
| 1777930952 | 8.89° C | 44% | 1015.8 hPa | - | - | - | - |
| 1777930052 | 9.44° C | 43% | 1015.8 hPa | - | - | - | - |
| 1777929152 | 10.56° C | 41% | 1015.7 hPa | - | - | - | - |
| 1777928252 | 10.56° C | 40% | 1015.8 hPa | - | - | - | - |
| 1777927352 | 11.11° C | 40% | 1015.6 hPa | - | - | - | - |
| 1777926452 | 11.11° C | 39% | 1015.6 hPa | - | - | - | - |
| 1777925552 | 11.67° C | 38% | 1015.6 hPa | - | - | - | - |
| 1777924652 | 12.22° C | 37% | 1015.6 hPa | - | - | - | - |
| 1777923752 | 12.78° C | 36% | 1015.6 hPa | - | - | - | - |
| 1777922852 | 12.78° C | 35% | 1015.6 hPa | - | - | - | - |
| 1777921952 | 13.89° C | 33% | 1015.6 hPa | - | - | - | - |
| 1777921051 | 14.44° C | 33% | 1015.5 hPa | - | - | - | - |
| 1777920151 | 14.44° C | 31% | 1015.4 hPa | - | - | - | - |
* Rain since midnight (hover to see other rain measurements)
** Current wind speed in m/s (hover to see current wind gust speed)